FW8602 Weather Reports


time (UTC)temp
F
wind
direction
speed
knots
gust
knots
rain 1hr
in
rain 24hr
in
rain mn
in
humidity
%
barometer
mb
20260504100602 35 0 0.0 0.0 0.00 0.00 0.00 92 1013.5
20260504100103 34 0 0.0 0.0 0.00 0.00 0.00 92 1013.5
20260504081608 35 0 0.0 0.0 0.00 0.00 0.00 92 1013.9
20260504081058 35 0 0.0 0.0 0.00 0.00 0.00 92 1013.8
20260504080603 35 0 0.0 0.0 0.00 0.00 0.00 92 1013.9
20260504080116 35 0 0.0 0.0 0.00 0.00 0.00 92 1013.8
20260504050559 39 0 0.0 0.0 0.00 0.00 0.00 85 1013.9
20260504050107 39 0 0.0 0.0 0.00 0.00 0.00 85 1013.9
20260504045602 39 0 0.0 0.0 0.00 0.00 0.00 84 1014.0
20260504045102 39 0 0.0 0.0 0.00 0.00 0.00 84 1014.0
20260504044603 39 0 0.0 0.0 0.00 0.00 0.00 84 1014.1
20260504044058 38 0 0.0 0.0 0.00 0.00 0.00 83 1014.0
20260504043558 38 0 0.0 0.0 0.00 0.00 0.00 83 1014.0
20260504043102 39 0 0.0 0.0 0.00 0.00 0.00 83 1014.0
20260504042600 39 0 0.0 0.0 0.00 0.00 0.00 82 1014.1
20260504042101 39 0 0.0 0.0 0.00 0.00 0.00 81 1014.0
20260504041602 39 0 0.0 0.0 0.00 0.00 0.00 81 1014.0
20260504041101 39 0 0.0 0.0 0.00 0.00 0.00 81 1013.9
20260504040558 39 0 0.0 0.0 0.00 0.00 0.00 79 1013.8
20260504035558 40 0 0.0 0.0 0.00 0.00 0.00 78 1013.7
20260504035057 40 0 0.0 0.0 0.00 0.00 0.00 78 1013.8
20260504034600 40 0 0.0 0.0 0.00 0.00 0.00 77 1013.8
20260504034104 40 0 0.0 0.0 0.00 0.00 0.00 78 1013.8
20260504033601 40 0 0.0 0.0 0.00 0.00 0.00 76 1013.7
20260504033101 40 0 0.0 0.0 0.00 0.00 0.00 76 1013.7
20260504032601 41 0 0.0 0.0 0.00 0.00 0.00 75 1013.8
20260504032103 41 0 0.0 0.0 0.00 0.00 0.00 75 1013.8
20260504031600 41 0 0.0 0.0 0.00 0.00 0.00 74 1013.7
20260504031058 41 0 0.0 0.0 0.00 0.00 0.00 73 1013.6
20260504030558 41 0 0.0 0.0 0.00 0.00 0.00 73 1013.5
20260504030058 41 0 0.0 0.0 0.00 0.00 0.00 71 1013.5
20260504025558 42 0 0.0 0.0 0.00 0.00 0.00 69 1013.6
20260504025101 42 0 0.0 0.0 0.00 0.00 0.00 69 1013.6
20260504024616 43 0 0.0 0.0 0.00 0.00 0.00 69 1013.5
20260504024057 43 0 0.0 0.0 0.00 0.00 0.00 69 1013.5
20260504023558 43 0 0.0 0.0 0.00 0.00 0.00 69 1013.4
20260504023101 43 0 0.0 0.0 0.00 0.00 0.00 68 1013.5
20260504022602 43 0 0.0 0.0 0.00 0.00 0.00 68 1013.5
20260504022058 44 0 0.0 0.0 0.00 0.00 0.00 68 1013.6
20260504021558 44 0 0.0 0.0 0.00 0.00 0.00 66 1013.5
20260504021100 44 0 0.0 0.0 0.00 0.00 0.00 65 1013.4
20260504020558 45 0 0.0 3.5 0.00 0.00 0.00 65 1013.3
20260504015601 0 0.0 0.0 0.00 0.00 0.00 1013.2
20260503234602 57 0 0.9 2.6 0.00 0.00 0.00 39 1012.2
20260503234101 57 0 0.9 5.2 0.00 0.00 0.00 39 1012.0
20260503233558 57 0 0.9 5.2 0.00 0.00 0.00 38 1012.0
20260503233058 57 53 1.7 5.2 0.00 0.00 0.00 38 1012.0
20260503232557 58 302 0.9 6.1 0.00 0.00 0.00 38 1012.0
20260503232057 58 249 0.9 7.0 0.00 0.00 0.00 37 1012.0
20260503231559 58 0 2.6 9.6 0.00 0.00 0.00 37 1011.9
20260503231059 59 295 0.9 9.6 0.00 0.00 0.00 36 1011.9
20260503230602 59 320 1.7 7.8 0.00 0.00 0.00 36 1012.0
20260503230058 59 293 0.9 6.1 0.00 0.00 0.00 36 1012.0
20260503225558 59 358 2.6 6.1 0.00 0.00 0.00 35 1011.9
20260503225058 59 0 1.7 7.0 0.00 0.00 0.00 34 1011.9
20260503224557 60 288 1.7 7.0 0.00 0.00 0.00 33 1011.9
20260503224058 61 310 0.9 4.3 0.00 0.00 0.00 34 1011.9
20260503223558 61 235 0.9 4.3 0.00 0.00 0.00 33 1011.8
20260503223056 60 276 0.9 5.2 0.00 0.00 0.00 34 1011.9
20260503222557 60 0 1.7 8.7 0.00 0.00 0.00 35 1011.9
20260503222057 60 0 3.5 8.7 0.00 0.00 0.00 34 1011.9
20260503221600 60 303 2.6 7.8 0.00 0.00 0.00 33 1011.7
20260503221058 60 315 1.7 7.8 0.00 0.00 0.00 35 1011.8
20260503220558 60 311 1.7 7.8 0.00 0.00 0.00 35 1011.8
20260503220058 59 271 2.6 7.8 0.00 0.00 0.00 34 1011.8
20260503215559 60 254 2.6 7.0 0.00 0.00 0.00 35 1011.9
20260503215057 60 6 1.7 7.0 0.00 0.00 0.00 34 1011.9
20260503214557 60 13 0.9 6.1 0.00 0.00 0.00 35 1011.8
20260503214057 60 297 1.7 7.0 0.00 0.00 0.00 35 1011.8
20260503213557 60 276 1.7 7.8 0.00 0.00 0.00 34 1011.8
20260503213105 60 0 1.7 9.6 0.00 0.00 0.00 34 1011.7
20260503212602 61 314 1.7 9.6 0.00 0.00 0.00 33 1011.8
20260503212101 61 355 2.6 11.3 0.00 0.00 0.00 33 1011.6
20260503211620 61 0 3.5 11.3 0.00 0.00 0.00 33 1011.6
20260503211058 60 13 0.9 6.1 0.00 0.00 0.00 33 1011.6
20260503210558 60 316 1.7 8.7 0.00 0.00 0.00 33 1011.7
20260503205558 61 315 2.6 8.7 0.00 0.00 0.00 32 1011.6
20260503205101 62 32 0.9 6.1 0.00 0.00 0.00 31 1011.6
20260503204600 61 352 1.7 11.3 0.00 0.00 0.00 34 1011.5
20260503204057 61 293 2.6 11.3 0.00 0.00 0.00 34 1011.6
20260503203557 61 276 1.7 6.1 0.00 0.00 0.00 34 1011.8
20260503203114 61 27 0.9 5.2 0.00 0.00 0.00 35 1011.6
20260503202602 60 349 1.7 5.2 0.00 0.00 0.00 34 1011.9
20260503202101 60 271 2.6 5.2 0.00 0.00 0.00 32 1011.9
20260503201600 61 308 1.7 7.0 0.00 0.00 0.00 35 1011.7
20260503201058 61 291 1.7 7.0 0.00 0.00 0.00 34 1011.8
20260503200603 61 271 1.7 7.0 0.00 0.00 0.00 33 1011.8
20260503200101 61 323 1.7 6.1 0.00 0.00 0.00 34 1011.9
20260503195603 60 38 1.7 8.7 0.00 0.00 0.00 35 1012.0
20260503195101 60 269 1.7 8.7 0.00 0.00 0.00 34 1012.0
20260503194601 59 307 2.6 7.8 0.00 0.00 0.00 34 1012.1
20260503194101 59 308 3.5 8.7 0.00 0.00 0.00 32 1012.2
20260503193558 60 311 1.7 8.7 0.00 0.00 0.00 32 1012.3
20260503193109 59 335 2.6 9.6 0.00 0.00 0.00 33 1012.3
20260503192600 59 289 4.3 9.6 0.00 0.00 0.00 33 1012.4
20260503192058 59 255 3.5 9.6 0.00 0.00 0.00 33 1012.4
20260503191604 60 20 3.5 9.6 0.00 0.00 0.00 32 1012.6
20260503191102 60 318 2.6 8.7 0.00 0.00 0.00 34 1012.6
20260503190557 60 300 1.7 8.7 0.00 0.00 0.00 33 1012.7
20260503185602 59 0 0.9 7.0 0.00 0.00 0.00 34 1012.8
20260503185100 58 5 2.6 7.0 0.00 0.00 0.00 33 1012.9
20260503184559 58 277 3.5 7.0 0.00 0.00 0.00 33 1013.0
20260503184102 58 274 2.6 9.6 0.00 0.00 0.00 34 1013.1
20260503183601 58 247 2.6 11.3 0.00 0.00 0.00 33 1013.1
20260503183101 58 256 3.5 11.3 0.00 0.00 0.00 33 1013.2
20260503182602 58 238 1.7 7.8 0.00 0.00 0.00 34 1013.3
20260503182101 58 21 2.6 7.8 0.00 0.00 0.00 33 1013.3
20260503181605 58 224 0.9 11.3 0.00 0.00 0.00 34 1013.2
20260503181100 58 278 2.6 11.3 0.00 0.00 0.00 37 1013.3
20260503180558 57 326 1.7 8.7 0.00 0.00 0.00 37 1013.4
20260503180117 57 308 2.6 8.7 0.00 0.00 0.00 36 1013.4
20260503175558 57 322 2.6 7.8 0.00 0.00 0.00 35 1013.5
20260503175058 56 312 2.6 9.6 0.00 0.00 0.00 38 1013.5
20260503174600 57 20 2.6 9.6 0.00 0.00 0.00 33 1013.5
20260503174058 57 281 3.5 9.6 0.00 0.00 0.00 35 1013.7
20260503173558 57 291 1.7 7.8 0.00 0.00 0.00 35 1013.7
20260503173101 56 46 0.9 3.5 0.00 0.00 0.00 38 1013.8
20260503172558 54 292 0.9 7.0 0.00 0.00 0.00 40 1013.9
20260503172057 54 308 1.7 7.0 0.00 0.00 0.00 39 1014.0
20260503171600 54 332 1.7 8.7 0.00 0.00 0.00 36 1014.1
20260503171057 55 264 2.6 12.2 0.00 0.00 0.00 36 1014.1
20260503170558 54 259 2.6 12.2 0.00 0.00 0.00 39 1014.2
20260503160110 53 321 2.6 6.1 0.00 0.00 0.00 40 1014.5
20260503150558 51 302 2.6 11.3 0.00 0.00 0.00 38 1014.8
20260503131057 47 3 0.9 6.1 0.00 0.00 0.00 58 1015.4
20260503130559 47 295 1.7 6.1 0.00 0.00 0.00 56 1015.4
20260503130104 47 288 0.9 6.1 0.00 0.00 0.00 58 1015.4
20260503110558 39 0 0.0 1.7 0.00 0.00 0.00 73 1015.0